Regional Weather Roundup
Issued by NWS Binghamton, NY

Home | Current Version | Previous Version | Text Only | Print | Product List | Glossary On
Versions: 1 2 3 4 5 6 7 8 9 10 11 12 13 14 15 16 17 18 19 20 21 22 23 24 25 26 27 28 29 30 31 32 33 34 35 36 37 38 39 40 41 42 43 44 45 46 47 48 49 50
000
ASUS41 KBGM 012110
RWRBGM
RWRBGM
BINGHAMTON REGIONAL WEATHER ROUNDUP
NATIONAL WEATHER SERVICE BINGHAMTON NY
500 PM EDT TUE SEP 01 2015

Note: "fair" indicates few or no clouds below 12,000 feet with no
significant weather and/or obstructions to visibility.

* = Station(s) that does not report precipitation, such as rain,
snow, etc, also no thunder or fog.

!NYZ009-015>018-022>025-036-037-044>046-055>057-062-012200
...CENTRAL NEW YORK...

CITY           SKY/WX    TMP DP  RH WIND       PRES   REMARKS
BINGHAMTON     MOSUNNY   78  65  63 SE6       30.09S
CORTLAND       FAIR      81  64  57 W5        30.08F
DANSVILLE      SUNNY     86  62  44 W5        30.04F HX  86
ELMIRA         SUNNY     84  65  52 S3        30.04F HX  86
ITHACA         MOSUNNY   82  66  58 W5        30.08S
HORNELL        SUNNY     82  63  51 W6          N/A
MONTICELLO     SUNNY     81  61  50 NW5       30.09S
NORWICH        SUNNY     81  64  57 CALM      30.07S
ONEONTA        MOSUNNY   79  59  50 W3        30.10S
PENN YAN       SUNNY     83  65  54 CALM      30.06F HX  85
ROME           MOSUNNY   77  68  73 NW8       30.06F
SIDNEY         SUNNY     82  66  57 CALM      30.06F HX  85
SYRACUSE       MOSUNNY   81  68  64 CALM      30.04S
$$

!PAZ038>040-043-044-047-048-072-012200
...NORTHEAST PENNSYLVANIA...

CITY           SKY/WX    TMP DP  RH WIND       PRES   REMARKS
HAZLETON       SUNNY     81  61  50 CALM      30.12S
SCRANTON       SUNNY     87  60  40 W5        30.05S HX  87
TOWANDA*       SUNNY     84  63  48 MISG      30.05F HX  85
$$
&&
KEY
WCI = WIND CHILL INDEX
VSB = VISIBILITY
HX  = HEAT INDEX
$$


USA.gov is the U.S. government's official web portal to all federal, state and local government web resources and services.